Temperature
24 23 23 23 23 24 24 24 23 24 24 23 23 22 22 22 21 21 21 21 21 21 21 21 21 20 20 20 19 19 19 19 19 19 19 19 19 18 18 18 18 18 18 18
23 23 24 25 24 24 24 24 23 24 24 23 22 22 22 21 21 21 21 21 21 21 21 21 21 20 20 20 20 19 19 19 19 19 19 18 18 18 18 18 18 18 18 18
24 25 25 25 25 25 24 24 24 24 23 23 23 22 22 21 21 21 21 21 21 21 21 21 20 20 20 20 20 19 19 19 19 19 18 18 18 18 18 18 18 18 18 17
24 25 25 25 25 25 24 25 25 24 23 21 23 21 22 21 20 20 20 20 20 21 21 21 20 20 20 20 20 19 19 19 19 18 18 19 19 19 18 18 18 18 17 17
25 25 26 26 26 26 25 25 24 23 22 21 21 21 21 20 20 20 20 20 21 21 21 21 20 20 20 20 19 19 19 19 19 18 18 18 18 18 18 18 18 18 18 17
25 25 26 26 26 26 25 23 22 20 20 21 21 21 21 20 20 20 20 21 21 21 21 21 20 20 20 20 19 19 19 19 19 18 18 18 18 18 18 18 18 18 17 17
25 25 26 26 26 25 24 22 21 22 20 21 21 21 20 21 21 20 20 21 21 21 21 20 20 20 20 20 20 19 19 19 19 19 18 18 18 18 18 18 17 17 17 17
24 24 25 26 26 24 23 22 21 22 21 20 21 20 21 21 21 21 21 21 21 21 21 20 21 21 20 20 20 19 19 19 19 18 18 18 18 18 17 17 17 17 17 17
23 24 25 26 26 25 23 21 21 19 20 20 20 20 21 21 20 20 20 20 20 20 20 20 21 20 20 20 20 20 19 19 19 19 18 18 18 17 17 17 17 17 17 17
23 24 25 25 25 24 23 20 19 19 20 21 21 21 20 20 20 19 19 19 20 20 20 20 20 20 20 20 20 20 19 19 19 19 18 18 18 17 17 17 17 17 17 16
23 23 23 24 24 24 23 21 18 17 18 20 21 21 21 20 19 19 18 19 20 20 20 20 20 20 20 20 20 20 19 19 19 18 18 18 18 17 17 17 17 17 16 16
21 20 21 22 23 23 23 22 19 21 20 18 19 20 21 19 19 19 19 19 20 20 20 20 20 20 20 20 20 19 19 19 18 18 18 18 17 17 17 17 17 16 16 16
21 20 21 22 22 23 23 21 19 18 17 17 19 21 20 19 19 19 19 19 19 20 20 20 20 20 20 20 20 19 19 19 18 18 18 18 17 17 17 16 16 16 16 16
21 19 21 22 22 22 22 22 20 19 19 18 19 20 20 19 18 18 19 19 20 20 20 20 20 20 20 20 19 19 19 18 18 18 18 17 17 17 16 16 16 16 15 15
20 21 21 21 22 22 22 22 21 21 20 20 20 19 19 19 18 19 19 19 19 19 20 20 20 19 19 19 19 19 18 18 18 18 17 17 17 16 16 16 15 15 15 15
18 20 21 22 22 22 22 22 21 21 20 20 20 19 19 19 19 18 18 19 19 19 19 19 19 19 19 19 18 18 18 18 18 17 17 17 16 16 16 15 15 15 15 15
17 19 20 20 21 22 21 21 21 21 20 19 20 19 18 18 17 18 18 18 18 19 19 19 19 19 19 18 18 18 17 17 17 17 17 17 16 16 15 15 15 15 15 15
17 17 16 18 20 21 20 20 21 20 20 19 19 18 18 18 19 19 19 19 19 19 19 19 19 19 18 18 18 17 17 17 17 17 16 16 16 15 15 15 15 14 14 14
15 16 16 16 18 19 20 20 20 20 20 19 19 18 18 18 18 18 19 19 19 19 19 19 19 18 18 18 18 17 17 17 16 16 16 16 16 15 15 15 14 14 14 14
14 15 16 16 19 19 20 21 20 20 19 19 18 18 18 18 17 17 19 19 19 19 18 18 18 18 18 18 17 17 17 16 16 16 15 15 15 15 14 14 14 14 14 14
17 15 16 16 18 18 19 19 20 20 19 19 19 19 18 18 18 19 19 19 19 18 18 18 18 18 17 17 17 17 16 16 16 15 15 15 14 14 14 14 13 13 13 13
16 16 15 15 17 18 18 19 19 18 19 19 19 19 19 19 19 19 19 18 18 18 18 18 17 17 17 17 16 16 16 16 15 15 15 14 14 14 13 13 13 13 13 13
14 15 14 15 16 17 17 18 19 19 19 19 19 19 19 18 18 18 18 18 18 18 17 17 17 17 16 16 16 16 16 15 15 14 14 14 14 13 13 13 13 13 13 13
14 13 13 14 15 16 17 18 19 19 19 19 19 19 19 19 18 18 18 17 17 17 17 17 17 16 16 16 16 15 15 15 14 14 14 13 13 13 13 13 12 12 12 12
14 14 14 14 15 16 18 18 18 19 19 19 19 19 19 19 18 18 17 17 17 17 16 16 16 16 16 15 15 15 15 14 14 14 13 13 13 13 12 12 12 12 12 12
13 13 14 14 15 15 17 18 18 18 18 18 18 18 18 18 18 17 17 17 16 16 16 16 16 15 15 15 15 15 14 14 14 13 13 13 12 12 12 12 12 12 12 11
Wind_Speed
2 3 2 6 7 5 3 2 4 4 2 3 2 2 2 3 4 4 4 4 5 5 4 3 3 3 3 3 3 3 3 2 2 2 1 1 1 1 2 2 2 2 2 1
4 3 7 4 3 3 3 2 3 2 2 3 1 2 1 3 5 5 5 5 5 3 2 2 2 3 3 3 3 3 3 2 2 2 1 1 1 0 1 1 2 2 2 2
5 6 2 2 1 2 3 5 4 2 3 4 3 5 3 1 1 2 3 3 3 5 4 3 3 3 3 3 3 3 2 2 2 2 2 2 2 2 2 2 2 2 2 2
5 5 2 1 3 4 4 5 4 4 3 1 2 2 5 2 2 2 3 3 3 3 3 3 3 3 3 3 3 2 2 2 2 2 2 3 2 1 1 1 1 2 2 2
5 3 2 4 5 5 4 1 3 3 4 2 2 2 6 2 3 5 5 4 4 4 4 4 4 4 3 3 3 2 2 2 2 2 3 3 1 1 0 1 1 2 2 2
6 3 4 5 2 4 4 6 6 6 5 2 3 3 5 3 5 4 4 4 4 4 4 4 3 3 2 2 2 2 3 2 2 2 2 3 2 1 0 1 1 1 1 1
5 4 2 2 2 3 5 6 4 5 4 4 2 2 7 5 4 4 5 5 4 4 4 4 4 4 4 3 3 2 2 2 2 2 2 2 2 2 2 2 1 0 1 1
1 6 4 1 4 4 3 7 6 4 4 4 2 4 5 3 2 1 3 3 4 4 4 5 5 5 4 4 4 3 3 2 1 2 2 2 2 2 2 2 1 1 1 1
5 6 4 2 1 6 5 3 5 6 2 1 4 5 5 2 3 2 3 3 3 4 4 4 4 4 4 4 3 4 3 2 2 2 1 1 1 1 1 1 1 1 1 1
7 4 5 4 4 5 4 8 6 5 4 2 4 4 4 4 2 1 2 3 3 3 4 4 4 4 3 3 3 3 3 3 2 2 1 1 1 1 1 0 0 1 1 1
5 4 4 4 1 1 3 4 6 5 5 5 3 6 4 7 5 4 4 3 4 4 4 4 3 3 3 3 3 3 2 2 2 1 1 1 1 0 1 0 1 1 1 1
4 5 1 5 4 2 3 5 7 5 3 4 4 7 4 4 4 4 4 3 3 3 3 3 3 3 3 3 3 3 2 2 2 2 2 2 1 1 1 1 1 1 1 1
5 6 2 6 5 3 2 2 4 6 5 5 4 6 2 2 1 2 3 2 2 3 2 2 2 2 3 3 3 3 3 2 2 2 2 2 1 1 1 1 1 1 1 1
5 5 6 8 7 3 2 2 4 6 4 5 7 7 4 2 2 2 2 3 3 3 3 3 2 2 2 2 3 3 2 3 3 2 2 1 1 1 0 1 1 1 1 1
4 3 3 4 3 3 3 3 4 5 7 8 7 7 8 6 6 5 4 3 3 2 2 2 3 2 2 2 2 3 2 2 3 3 2 2 1 1 0 0 1 1 1 1
4 3 2 2 2 1 1 3 4 4 3 4 3 5 5 2 2 3 4 5 4 3 2 2 2 2 2 3 3 3 2 2 3 3 3 2 1 1 0 0 0 1 1 1
2 5 3 3 3 2 3 5 5 3 3 5 6 7 3 3 5 6 6 5 4 4 2 2 3 3 3 3 3 3 3 2 2 2 2 2 2 1 1 1 0 0 1 1
6 5 4 2 2 4 7 3 4 4 2 3 4 4 5 6 4 3 4 6 5 4 3 2 2 2 2 2 2 2 2 2 2 1 1 2 2 1 1 1 0 0 1 1
5 7 5 4 3 5 6 3 3 3 3 3 4 3 2 4 4 1 1 4 5 5 3 3 3 2 2 2 3 3 2 2 1 1 1 1 2 2 1 1 1 1 0 1
5 5 5 4 4 7 7 2 0 3 3 3 5 5 4 4 2 4 3 2 2 1 1 1 2 2 2 1 3 4 3 2 1 2 2 1 2 2 2 1 1 0 0 0
3 4 3 4 4 7 5 3 1 3 6 3 3 4 5 5 5 3 2 2 2 1 2 2 3 2 1 2 3 4 3 2 2 1 1 1 1 2 2 1 1 0 1 1
4 3 3 4 3 6 3 1 3 5 2 1 2 3 3 2 1 2 2 2 2 2 1 3 3 1 1 2 4 3 2 2 1 2 1 1 0 1 1 1 1 1 1 1
4 5 5 6 6 4 3 2 2 1 1 1 1 1 2 2 1 1 2 2 2 2 2 2 3 2 1 1 3 3 2 1 2 2 1 1 1 1 1 1 1 1 1 0
2 1 2 2 4 3 3 2 2 1 0 1 0 2 3 3 2 2 2 2 2 2 2 2 3 2 1 0 1 2 2 2 3 2 1 0 1 1 1 1 1 0 0 0
3 1 1 2 4 3 3 2 2 3 3 3 3 1 2 3 3 4 4 3 2 2 2 3 3 2 1 1 0 1 2 3 3 2 1 0 0 0 1 1 1 2 2 2
3 4 4 5 5 3 4 4 2 2 2 2 1 2 1 3 5 4 5 4 3 3 2 2 2 2 2 1 1 1 2 4 4 2 1 1 0 0 0 1 2 3 2 3
Wind_Direction
50 76 233 231 204 206 197 214 267 269 236 136 188 256 243 162 161 181 194 197 211 225 227 196 186 169 149 151 154 157 148 135 117 108 116 93 25 21 29 30 24 21 24 27
26 274 241 226 191 185 201 242 272 323 24 142 106 322 323 152 186 192 194 205 217 217 218 203 187 166 168 169 166 157 157 154 149 159 161 141 111 54 41 10 20 32 41 37
213 252 246 181 210 201 233 210 221 203 37 51 61 345 320 250 167 163 187 203 206 202 204 201 183 182 168 168 175 178 172 157 149 137 108 85 60 34 21 13 10 10 32 49
244 258 244 256 249 188 260 235 192 161 108 339 88 282 292 268 244 217 222 212 211 203 192 186 177 172 175 183 169 166 164 151 140 133 130 128 131 167 271 296 336 0 20 37
258 228 227 250 242 193 218 92 102 104 122 60 20 153 288 307 257 245 233 220 208 192 188 183 182 184 180 171 165 173 156 151 152 149 158 151 157 194 305 9 12 3 9 31
251 249 211 226 244 160 139 71 58 51 69 16 271 182 278 250 235 244 225 215 196 180 182 181 173 160 161 152 151 155 153 174 176 169 167 169 180 180 88 347 338 344 348 358
320 313 285 169 75 54 85 86 33 6 11 265 269 195 253 264 248 225 209 206 188 171 175 178 174 175 181 179 172 160 161 198 198 181 188 193 197 198 214 239 238 266 311 314
271 296 284 239 185 178 157 139 156 198 226 275 322 244 262 291 318 146 158 163 157 158 171 179 184 182 185 190 185 179 185 206 204 194 211 210 200 205 231 241 229 223 240 262
183 256 290 288 193 137 130 138 154 132 133 301 291 292 308 31 36 63 104 122 147 166 171 175 176 175 174 178 185 186 187 197 202 197 194 210 233 221 227 242 220 241 259 259
165 227 291 302 64 42 121 139 100 112 141 254 293 278 255 263 244 221 148 154 166 163 165 172 179 182 185 178 170 157 167 186 184 172 183 189 210 222 215 169 219 256 293 336
144 164 311 7 86 184 98 92 102 110 146 157 244 269 230 213 207 199 205 189 170 167 174 178 183 182 172 153 154 151 146 137 130 142 139 104 72 98 105 176 255 265 299 308
141 127 251 278 277 215 154 157 146 151 203 171 186 261 282 191 187 180 194 184 160 161 169 164 161 153 146 149 148 149 155 151 146 128 112 103 78 62 58 16 307 272 270 287
133 113 69 343 341 2 71 121 132 121 118 154 182 259 329 97 137 164 181 177 166 154 152 145 143 153 159 162 164 164 166 172 162 132 118 89 66 72 47 1 353 345 325 321
117 117 165 202 224 222 256 192 154 132 153 200 221 238 271 247 221 193 167 166 176 171 162 154 162 179 177 167 162 165 176 173 165 147 135 141 230 239 246 353 0 348 338 323
102 141 198 233 240 196 215 219 193 187 190 197 231 221 236 223 210 194 174 167 158 162 164 170 180 196 185 169 167 165 169 172 168 159 165 199 225 235 260 1 334 341 350 342
81 139 139 299 287 217 247 255 213 211 197 207 224 253 244 222 151 161 174 178 177 188 206 207 199 205 201 193 191 184 183 178 162 167 179 186 175 178 219 271 303 354 350 345
116 136 135 253 300 34 268 237 206 202 208 184 212 230 186 170 188 189 188 188 192 199 211 216 215 218 220 208 195 196 203 189 169 175 174 168 168 179 212 210 63 36 356 4
147 129 137 164 90 228 247 251 186 176 237 219 221 219 191 195 186 177 185 185 189 190 194 211 222 227 217 186 171 170 153 153 153 164 184 191 186 207 220 163 140 299 323 352
153 139 126 137 189 263 287 245 182 172 274 229 188 186 151 119 76 347 224 182 184 187 193 204 201 194 171 162 151 140 136 131 138 183 218 217 196 201 187 180 233 262 301 1
70 99 121 137 171 228 244 270 215 106 284 237 180 180 166 128 160 246 208 179 190 167 153 155 143 120 131 150 136 133 131 128 182 220 220 204 180 175 178 199 228 304 92 5
43 55 121 163 211 255 263 290 86 163 242 241 204 198 180 193 213 207 161 157 172 156 143 121 117 117 147 148 137 140 144 180 215 206 159 147 151 165 169 162 139 78 59 40
172 153 169 148 196 258 293 90 170 221 263 202 210 198 181 190 165 138 140 150 149 134 111 114 112 100 122 136 135 142 177 204 140 113 103 104 126 163 135 118 54 42 63 36
187 189 186 191 215 252 281 241 257 180 189 246 197 226 162 151 169 138 151 164 160 153 146 128 128 109 82 124 136 157 196 142 121 111 102 83 44 48 96 117 98 30 41 27
278 134 145 260 272 286 300 320 10 58 132 291 151 149 154 166 169 154 154 155 154 157 141 126 120 109 112 32 95 170 166 141 132 130 132 127 93 49 50 61 95 146 231 276
241 151 129 268 284 326 334 336 337 5 34 49 45 86 162 164 172 171 166 162 162 153 140 139 145 160 202 179 160 165 150 136 136 143 160 202 108 82 28 1 309 259 249 224
215 186 186 229 234 212 259 288 312 7 8 32 56 18 21 168 176 169 163 160 156 158 154 157 159 175 209 201 185 173 149 142 144 155 179 197 219 21 52 2 346 336 290 278
Height
1495 1500 1504 1501 1499 1500 1502 1507 1509 1503 1496 1500 1503 1504 1501 1501 1502 1503 1504 1504 1505 1505 1507 1508 1509 1509 1510 1510 1511 1511 1512 1513 1513 1514 1514 1514 1515 1515 1515 1515 1515 1515 1515 1514
1500 1502 1494 1492 1494 1497 1501 1507 1507 1502 1497 1500 1505 1505 1501 1501 1501 1502 1503 1503 1504 1505 1506 1507 1509 1509 1509 1510 1511 1511 1512 1513 1514 1514 1515 1515 1515 1515 1515 1515 1515 1515 1515 1514
1501 1495 1489 1491 1495 1499 1501 1504 1504 1504 1501 1501 1505 1510 1504 1501 1501 1501 1502 1503 1503 1504 1505 1506 1507 1508 1509 1510 1510 1511 1512 1513 1514 1515 1515 1515 1515 1515 1515 1515 1515 1514 1514 1514
1496 1490 1490 1492 1494 1495 1503 1493 1495 1499 1509 1517 1511 1526 1509 1503 1501 1501 1501 1502 1502 1503 1504 1505 1506 1507 1508 1509 1510 1511 1512 1513 1514 1515 1515 1515 1515 1514 1514 1514 1514 1514 1514 1513
1494 1489 1490 1492 1490 1489 1494 1490 1494 1500 1509 1518 1516 1524 1517 1505 1504 1501 1500 1500 1501 1502 1503 1504 1505 1506 1507 1509 1510 1511 1512 1512 1513 1514 1514 1514 1514 1514 1514 1514 1514 1513 1513 1513
1489 1485 1485 1485 1484 1485 1489 1495 1501 1509 1517 1529 1521 1525 1521 1509 1503 1499 1498 1498 1499 1501 1502 1503 1505 1506 1507 1508 1509 1510 1511 1512 1513 1513 1514 1514 1514 1514 1514 1513 1513 1513 1512 1512
1494 1487 1483 1482 1487 1489 1492 1509 1528 1530 1537 1534 1519 1522 1518 1500 1496 1495 1495 1496 1497 1499 1501 1502 1503 1505 1506 1507 1509 1510 1510 1511 1512 1512 1513 1513 1513 1513 1513 1513 1512 1512 1511 1511
1505 1504 1486 1482 1485 1492 1496 1505 1528 1537 1541 1533 1521 1523 1509 1496 1493 1492 1493 1494 1496 1497 1499 1501 1502 1504 1505 1506 1508 1509 1509 1510 1511 1512 1512 1512 1513 1512 1512 1512 1511 1511 1510 1510
1505 1503 1484 1481 1480 1485 1497 1505 1506 1523 1529 1535 1527 1516 1503 1495 1495 1494 1494 1494 1495 1497 1498 1500 1501 1503 1504 1505 1506 1508 1508 1509 1510 1510 1511 1511 1511 1511 1511 1511 1511 1510 1509 1509
1491 1499 1487 1482 1481 1485 1489 1498 1512 1524 1536 1539 1529 1521 1515 1501 1498 1496 1495 1495 1495 1496 1498 1499 1500 1502 1504 1505 1506 1507 1507 1508 1509 1510 1510 1510 1510 1510 1510 1509 1509 1509 1508 1508
1486 1498 1496 1489 1490 1492 1494 1501 1511 1523 1525 1537 1538 1525 1497 1496 1494 1494 1494 1493 1494 1495 1496 1498 1500 1501 1503 1504 1505 1506 1507 1508 1508 1508 1509 1509 1509 1509 1509 1508 1507 1507 1506 1506
1487 1498 1506 1497 1487 1485 1488 1494 1505 1516 1523 1528 1531 1521 1490 1490 1491 1492 1493 1493 1494 1495 1496 1498 1499 1500 1501 1503 1504 1505 1506 1506 1507 1508 1508 1508 1508 1508 1507 1507 1506 1505 1504 1504
1486 1499 1513 1509 1502 1492 1491 1493 1499 1507 1519 1528 1529 1514 1490 1490 1490 1491 1492 1493 1494 1495 1496 1497 1498 1499 1500 1501 1502 1503 1505 1505 1506 1507 1506 1506 1506 1505 1505 1505 1504 1504 1503 1502
1481 1496 1505 1512 1505 1496 1495 1494 1497 1503 1516 1520 1515 1505 1494 1491 1490 1490 1491 1492 1493 1494 1495 1496 1497 1498 1499 1500 1501 1502 1503 1504 1505 1505 1505 1505 1504 1504 1503 1503 1503 1502 1501 1500
1481 1494 1494 1493 1490 1491 1491 1491 1493 1496 1500 1506 1501 1499 1492 1488 1488 1489 1490 1491 1493 1494 1494 1495 1496 1497 1498 1499 1499 1500 1501 1502 1502 1503 1503 1503 1503 1502 1502 1501 1501 1500 1499 1498
1484 1492 1493 1493 1489 1489 1491 1489 1490 1491 1492 1495 1495 1495 1485 1485 1487 1488 1489 1490 1491 1492 1493 1494 1495 1496 1497 1497 1498 1498 1499 1500 1500 1500 1500 1500 1500 1500 1500 1499 1499 1498 1498 1497
1488 1492 1499 1502 1494 1491 1498 1489 1488 1489 1488 1490 1493 1488 1484 1485 1485 1486 1488 1489 1490 1491 1492 1493 1493 1494 1495 1496 1497 1497 1498 1498 1498 1498 1498 1498 1498 1498 1497 1497 1497 1496 1495 1495
1488 1495 1503 1506 1501 1509 1494 1481 1481 1484 1485 1484 1483 1482 1481 1482 1483 1484 1485 1486 1488 1489 1491 1491 1492 1493 1494 1495 1495 1497 1497 1497 1497 1497 1496 1496 1496 1495 1495 1494 1494 1494 1493 1493
1482 1491 1503 1510 1510 1503 1489 1481 1481 1484 1485 1480 1481 1480 1481 1482 1483 1484 1485 1485 1486 1488 1489 1490 1491 1491 1492 1493 1493 1495 1495 1495 1495 1495 1495 1494 1493 1493 1492 1492 1492 1492 1491 1491
1484 1487 1499 1507 1507 1508 1490 1478 1477 1481 1487 1479 1479 1479 1480 1482 1486 1484 1483 1484 1486 1486 1487 1488 1489 1490 1490 1491 1491 1492 1492 1493 1493 1493 1493 1492 1491 1491 1490 1490 1490 1490 1490 1489
1491 1495 1499 1504 1504 1496 1482 1477 1477 1490 1487 1477 1477 1477 1478 1479 1480 1480 1481 1483 1484 1485 1486 1486 1487 1488 1488 1489 1490 1490 1490 1491 1492 1492 1491 1490 1489 1489 1489 1489 1488 1488 1488 1487
1493 1497 1500 1504 1504 1498 1479 1477 1481 1481 1476 1476 1476 1476 1476 1477 1478 1479 1480 1481 1482 1483 1484 1485 1485 1487 1487 1488 1488 1488 1489 1490 1490 1490 1489 1489 1488 1488 1487 1487 1487 1486 1486 1486
1491 1491 1492 1494 1492 1482 1478 1477 1476 1476 1476 1476 1476 1476 1476 1477 1478 1478 1479 1480 1481 1482 1483 1484 1484 1485 1486 1486 1487 1487 1488 1488 1488 1488 1488 1487 1487 1486 1486 1486 1485 1485 1484 1484
1486 1485 1487 1487 1482 1479 1477 1476 1476 1476 1476 1475 1475 1475 1476 1476 1477 1477 1478 1479 1480 1480 1481 1482 1483 1483 1484 1485 1485 1486 1487 1487 1487 1487 1486 1486 1486 1485 1485 1484 1484 1483 1483 1482
1485 1484 1486 1485 1481 1478 1476 1476 1476 1475 1475 1474 1475 1475 1475 1475 1475 1476 1477 1478 1479 1479 1480 1481 1481 1482 1482 1483 1484 1485 1485 1485 1485 1485 1485 1485 1484 1484 1483 1483 1483 1482 1481 1480
1482 1483 1485 1483 1478 1479 1477 1476 1476 1475 1474 1474 1474 1474 1474 1474 1474 1474 1475 1476 1477 1478 1478 1479 1480 1481 1481 1482 1482 1483 1483 1483 1483 1483 1483 1483 1483 1482 1482 1482 1481 1481 1480 1479